Location: Springfield
(37.2150°N, 93.2980°W)
Time: 22:55:18
(UTC-06:00)

N. Korean satellite - Pass Details

Date: 20 October 2019
Orbit: 456 x 506 km, 97.2° (Epoch: 18 November)

Event Time Altitude Azimuth Distance (km) Brightness Sun altitude
Rises 06:07:09 0° 34° (NNE) 2,563 10.7 -16.3°
Reaches altitude 10° 06:10:02 10° 60° (ENE) 1,687 10.2 -15.7°
Maximum altitude 06:12:02 14° 93° (E) 1,446 10.2 -15.3°
Drops below altitude 10° 06:14:03 10° 127° (SE) 1,693 10.1 -14.9°
Sets 06:16:57 0° 153° (SSE) 2,578 10.7 -14.4°
